Orbital Elements at Epoch 2459200.5 (2020-Dec-17.0) TDB
Reference: JPL 15 (heliocentric ecliptic J2000)
Element | Value | Uncertainty (1-sigma) | Units |
e | .1294024779455198 | 4.8864e-08 | |
a | 2.340485383383507 | 1.4654e-08 | au |
q | 2.037620775178411 | 1.1498e-07 | au |
i | 6.314124565690304 | 5.2265e-06 | deg |
node | 292.3160033775208 | 4.8586e-05 | deg |
peri | 27.90038759779754 | 5.2164e-05 | deg |
M | 358.9541884345077 | 2.1316e-05 | deg |
tp | 2459204.299340930223 (2020-Dec-20.79934093) | 7.7454e-05 | TDB |
period | 1307.84816310255 3.58 | 1.2283e-05 3.363e-08 | d yr |
n | .2752613110271058 | 2.5851e-09 | deg/d |
Q | 2.643349991588603 | 1.655e-08 | au |
|
| | Orbit Determination Parameters
Additional Information
|